Location: Fort Wayne
(41.1310°N, 85.1290°W)
Time: 20:46:36
(UTC-05:00)

BREEZE-M DEB (TANK) - Visible Passes

Search period start: 01 February 2015 00:00
Search period end: 11 February 2015 00:00
Orbit: 284 x 13587 km, 49.6° (Epoch: 01 February)

Date Brightness Start Highest point End Pass type
(mag) Time Alt. Az. Time Alt. Az. Time Alt. Az.
01 Feb 3.6 19:15:13 10° NW 19:16:45 14° NNW 19:17:15 13° N visible
04 Feb 3.7 19:28:08 10° NNW 19:29:10 13° N 19:29:10 13° N visible
07 Feb 3.8 19:40:12 10° NNW 19:40:45 13° NNW 19:40:45 13° NNW visible
10 Feb 3.9 19:51:36 10° NNW 19:52:02 13° NNW 19:52:02 13° NNW visible
